Weather History for Campo, CA

Change the Weather History Date:

Tuesday, November 20, 2012

  Actual Average Record
Temperature  
Mean Temperature 54 °F 52 °F  
Max Temperature 75 °F 68 °F 85 °F (1995)
Min Temperature 32 °F 35 °F 17 °F (1979)
Degree Days  
Heating Degree Days 11 13  
Month to date heating degree days 209 213  
Since 1 July heating degree days 345 423  
Cooling Degree Days 0 0  
Month to date cooling degree days 0 0  
Year to date cooling degree days 942 839  
Growing Degree Days 2 (Base 50)    
Moisture  
Dew Point 36 °F    
Average Humidity 54    
Maximum Humidity 89    
Minimum Humidity 19    
Precipitation  
Precipitation 0.00 in 0.04 in 0.56 in (1990)
Month to date precipitation 0.43 0.63  
Year to date precipitation 8.24 12.96  
Since 1 July precipitation 2.19 2.81  
Snow  
Snow 0.00 in - - ()
Month to date snowfall 0.0  
Year to date snowfall 0.0  
Since 1 July snowfall 0.0  
Snow Depth 0.00 in    
Sea Level Pressure  
Sea Level Pressure 30.04 in    
Wind  
Wind Speed 5 mph (ENE)    
Max Wind Speed 16 mph    
Max Gust Speed -    
T = Trace of Precipitation, MM = Missing Value Source: NWS Daily Summary

Daily Weather History Graph

Daily Weather History Graph

Search for Another Location

Airport:

Trip Planner

Search our weather history database for the weather conditions in past years. The results will help you decide how hot, cold, wet, or windy it might be!

Date:

Astronomy

Nov. 20, 2012 Rise Set
Actual Time 6:20 AM PST 4:42 PM PST
Civil Twilight 5:54 AM PST 5:08 PM PST
Nautical Twilight 5:24 AM PST 5:38 PM PST
Astronomical Twilight 4:54 AM PST 6:08 PM PST
Moon 12:08 PM PST (11/20) No Moon Set
Length of Visible Light 11h 14m
Length of Day
10h 21m
First Quarter, 52% of the Moon is Illuminated
Nov 20
First Quarter
Nov 28
Full
Dec 6
Last Quarter
Dec 13
New
Dec 19
First Quarter

Hourly Weather History & Observations

Time (PST) Temp. Windchill Dew Point Humidity Pressure Visibility Wind Dir Wind Speed Gust Speed Precip Events Conditions
12:52 AM 39.9 °F 36.7 °F 33.1 °F 77% 30.10 in - NE 4.6 mph - N/A   Unknown
1:52 AM 39.0 °F 35.7 °F 32.0 °F 76% 30.09 in - ENE 4.6 mph - N/A   Unknown
2:52 AM 37.9 °F - 32.0 °F 79% 30.08 in - Calm Calm - N/A   Unknown
3:52 AM 37.9 °F - 32.0 °F 79% 30.07 in - Calm Calm - N/A   Unknown
4:52 AM 34.0 °F 31.0 °F 30.0 °F 85% 30.09 in - NE 3.5 mph - N/A   Unknown
5:52 AM 32.0 °F 27.5 °F 28.0 °F 85% 30.11 in - ENE 4.6 mph - N/A   Unknown
6:52 AM 35.1 °F 31.0 °F 30.0 °F 82% 30.12 in - ENE 4.6 mph - N/A   Unknown
7:52 AM 46.0 °F - 37.9 °F 73% 30.11 in - Calm Calm - N/A   Unknown
8:52 AM 62.1 °F - 37.9 °F 41% 30.08 in - Calm Calm - N/A   Unknown
9:52 AM 71.1 °F - 30.9 °F 23% 30.06 in - East 5.8 mph - N/A   Unknown
10:52 AM 73.9 °F - 28.9 °F 19% 30.03 in - East 8.1 mph - N/A   Unknown
11:52 AM 73.9 °F - 28.0 °F 18% 30.00 in - East 9.2 mph - N/A   Unknown
12:52 PM 73.9 °F - 33.1 °F 22% 29.98 in - SSW 9.2 mph - N/A   Unknown
1:52 PM 72.0 °F - 39.9 °F 31% 29.97 in - SSW 12.7 mph - N/A   Unknown
2:52 PM 71.1 °F - 39.9 °F 32% 29.97 in - WSW 9.2 mph - N/A   Unknown
3:52 PM 66.9 °F - 46.0 °F 47% 29.98 in - SW 9.2 mph - N/A   Unknown
4:52 PM 60.1 °F - 48.0 °F 64% 30.00 in - SSW 5.8 mph - N/A   Unknown
5:52 PM 54.0 °F - 45.0 °F 72% 30.03 in - Calm Calm - N/A   Unknown
6:52 PM 46.9 °F - 39.9 °F 77% 30.05 in - NE 4.6 mph - N/A   Unknown
7:52 PM 46.0 °F 43.9 °F 39.9 °F 79% 30.05 in - NE 4.6 mph - N/A   Unknown
8:52 PM 44.1 °F 40.1 °F 37.9 °F 79% 30.04 in - ENE 6.9 mph - N/A   Unknown
9:52 PM 42.1 °F 37.7 °F 37.0 °F 82% 30.02 in - NE 6.9 mph - N/A   Unknown
10:52 PM 41.0 °F 38.0 °F 37.0 °F 86% 30.01 in - NE 4.6 mph - N/A   Unknown
11:52 PM 41.0 °F 38.0 °F 36.0 °F 82% 30.01 in - NE 4.6 mph - N/A   Unknown